Regional Weather Roundup
Issued by NWS

Home | Current Version | Previous Version | Graphics & Text | Print | Product List | Glossary On
Versions: 1 2 3 4 5 6 7 8 9 10 11 12 13 14 15 16 17 18 19 20 21 22 23 24 25 26 27 28 29 30 31 32 33 34 35 36 37 38 39 40 41 42 43 44 45 46 47 48 49 50
000
ASUS43 KLOT 101903
RWRIL

ILLINOIS REGIONAL WEATHER ROUNDUP
NATIONAL WEATHER SERVICE CHICAGO/ROMEOVILLE IL
100 PM CST WED FEB 10 2016

NOTE: "FAIR" INDICATES FEW OR NO CLOUDS BELOW 12,000 FEET WITH NO
SIGNIFICANT WEATHER AND/OR OBSTRUCTIONS TO VISIBILITY.

* THESE STATIONS ARE NOT UNDER NWS QUALITY CONTROL. THEY ALSO MAY NOT
  REPORT WEATHER SUCH AS PRECIPITATION OR FOG.

ILZ001-002-007-009-015-016-024-102000-
NORTHWEST ILLINOIS

CITY           SKY/WX    TMP DP  RH WIND       PRES   REMARKS
MOLINE         CLOUDY    19   4  51 NW10      30.08F WCI   7
STERLING*      SUNNY     19   3  49 W10       30.03F WCI   8
$$

ILZ003-004-008-010-011-017-018-102000-
NORTH CENTRAL ILLINOIS

CITY           SKY/WX    TMP DP  RH WIND       PRES   REMARKS
ROCKFORD       PTSUNNY   15   2  56 NW13      30.05F WCI   1
FREEPORT*      SUNNY     14   2  58 NW7       30.05F WCI   4
ROCHELLE*      SUNNY     16   4  60 NW10G16   30.04F WCI   3
DE KALB*       MOSUNNY   15   4  62 W14       30.02S WCI   0
$$

ILZ005-006-012>014-019>023-102000-
NORTHEAST ILLINOIS

CITY           SKY/WX    TMP DP  RH WIND       PRES   REMARKS
CHICAGO-OHARE  PTSUNNY   15   3  59 W13       30.01F WCI   1
CHICAGO-MIDWAY MOSUNNY   17   2  51 W12       30.02F WCI   4
AURORA         PTSUNNY   17   6  62 W13       30.03F WCI   4
LANSING*       CLOUDY    16   4  58 W8        30.02S WCI   6
WAUKEGAN       CLOUDY    14   2  58 N8        29.99F WCI   3
DUPAGE AIRPORT MOSUNNY   15   2  56 W14       30.01S WCI   0
WHEELING       MOSUNNY   15   2  56 NW12      30.02F WCI   2
NORTHERLY ISL    N/A     17   3  54 W6          N/A  WCI   9
$$

LMZ740>746-102000-
SOUTHERN LAKE MICHIGAN

STATION/POSITION SKY/WX   TEMP    WIND        PRES    VSBY  WAVE
                          AIR SEA DIR/SP/G                  HT/PER
                          (F)     (DEG/KT/KT) (MB)    (MI)  (FT/S)
HARRISON CRIB              16     300/ 10/ 12   N/A
BURNHAM HARBOR             17     270/  7/ 15   N/A
CALUMET HARBOR             15     260/  7/ 10 1016.2F
BURNS HARBOR               15     290/ 12/ 15 1017.3S
MICHIGAN CITY              16     270/ 20/ 22   N/A
$$

ILZ025>027-034>036-040-047-049-050-058-095>099-102000-
WEST-CENTRAL ILLINOIS

CITY           SKY/WX    TMP DP  RH WIND       PRES   REMARKS
QUINCY         LGT SNOW  19  11  70 CALM      30.09F
MACOMB*        CLOUDY    17   8  66 W8        30.12F WCI   7
$$

ILZ028>032-037-038-041>044-048-051>054-059>061-102000-
CENTRAL ILLINOIS

CITY           SKY/WX    TMP DP  RH WIND       PRES   REMARKS
BLOOMINGTON    MOSUNNY   19   5  54 W14       30.05F WCI   6
DECATUR        CLOUDY    20   6  55 NW12      30.08F WCI   8
PEORIA         CLOUDY    19   1  45 W8        30.08F WCI   9
LINCOLN*       CLOUDY    20   7  55 W7        30.09F WCI  11
SPRINGFIELD    CLOUDY    20   7  57 W9        30.11F WCI   9
TAYLORVILLE    NOT AVBL
$$

ILZ033-039-045-046-055>057-062-063-102000-
EAST-CENTRAL ILLINOIS

CITY           SKY/WX    TMP DP  RH WIND       PRES   REMARKS
CHAMPAIGN      CLOUDY    18   6  59 W14       30.06F WCI   4
MATTOON        CLOUDY    17   5  59 MISG      30.08F
$$

ILZ079-100>102-102000-
SOUTHWEST ILLINOIS

CITY           SKY/WX    TMP DP  RH WIND       PRES   REMARKS
ALTON          CLOUDY    21   9  58 W10       30.15F WCI  10
BELLEVILLE     FLURRIES  23   8  52 W8        30.15F WCI  14
CAHOKIA*       LGT SNOW  23   7  50 W5        30.16F WCI  17
SPARTA*        CLOUDY    22   8  54 W9        30.18S WCI  12
$$

ILZ064>066-069>071-074>076-080>082-084>086-088>090-092>094-102000-
SOUTH-CENTRAL ILLINOIS

CITY           SKY/WX    TMP DP  RH WIND       PRES   REMARKS
CARBONDALE     CLOUDY    23   7  50 W12       30.18F WCI  12
MARION         CLOUDY    25  10  54 SW9       30.17F WCI  15
MT. VERNON     CLOUDY    23   9  54 W7        30.14F WCI  15
CENTRALIA*     CLOUDY    23   9  55 W10       30.13F WCI  12
SALEM*         CLOUDY    23   8  53 W10       30.13F WCI  12
$$

ILZ067-068-072-073-078-083-087-091-102000-
SOUTHEAST ILLINOIS

CITY           SKY/WX    TMP DP  RH WIND       PRES   REMARKS
LAWRENCEVILLE  CLOUDY    21   8  57 NW10      30.13F WCI  10
HARRISBURG*    MOSUNNY   24  10  56 SW7G16    30.17F WCI  16
$$

ABBREVIATIONS USED IN REMARKS
   TC - TEMPERATURE IN CELSIUS
  WCI - WIND CHILL INDEX
   HX - HEAT INDEX
  VSB - VISIBILITY
$$




USA.gov is the U.S. government's official web portal to all federal, state and local government web resources and services.